Watertown, SD

5:57 PM CST on February 14, 2016 (GMT -0600)
Watertown Municipal

Weather History for KATY - March, 2012

Change the Weather History Date:

Wednesday, March 28, 2012

  Actual Average Record
Temperature  
Mean Temperature 46 °F 35 °F  
Max Temperature 58 °F 45 °F 78 °F (1946)
Min Temperature 34 °F 25 °F -5 °F (1969)
Degree Days  
Heating Degree Days 19 30  
Month to date heating degree days 620 1016  
Since 1 July heating degree days 6129 7427  
Cooling Degree Days 0 0  
Month to date cooling degree days 5 0  
Year to date cooling degree days 5 0  
Moisture  
Dew Point 33 °F    
Average Humidity 68    
Maximum Humidity 92    
Minimum Humidity 43    
Precipitation  
Precipitation 0.00 in 0.05 in 1.71 in (1940)
Month to date precipitation 0.60 0.97  
Year to date precipitation 1.77 2.05  
Snow  
Snow 0.00 in - - ()
Month to date snowfall 1.4  
Since 1 July snowfall 19.6  
Snow Depth 0.00 in    
Sea Level Pressure  
Sea Level Pressure 30.02 in    
Wind  
Wind Speed 9 mph (North)    
Max Wind Speed 16 mph    
Max Gust Speed 22 mph    
Visibility 10 miles    
Events      
T = Trace of Precipitation, MM = Missing Value Source: NWS Daily Summary

Daily Weather History Graph

Daily Weather History Graph

Search for Another Location

Airport or City:

Trip Planner

Search our weather history database for the weather conditions in past years. The results will help you decide how hot, cold, wet, or windy it might be!

Date:

Astronomy

Mar. 28, 2012 Rise Set
Actual Time 7:15 AM CDT 7:51 PM CDT
Civil Twilight 6:46 AM CDT 8:21 PM CDT
Nautical Twilight 6:11 AM CDT 8:56 PM CDT
Astronomical Twilight 5:35 AM CDT 9:32 PM CDT
Moon 10:20 AM CDT (3/28) 1:08 AM CDT (3/28)
Length of Visible Light 13h 35m
Length of Day
12h 36m
Waxing Crescent, 30% of the Moon is Illuminated
Mar 28
Waxing Crescent
Mar 30
First Quarter
Apr 6
Full
Apr 13
Last Quarter
Apr 21
New

Hourly Weather History & Observations

Time (CDT) Temp. Windchill Dew Point Humidity Pressure Visibility Wind Dir Wind Speed Gust Speed Precip Events Conditions
12:53 AM 39.9 °F 34.5 °F 34.0 °F 79% 29.95 in 10.0 mi NNW 8.1 mph - N/A   Clear
1:53 AM 37.9 °F 33.5 °F 34.0 °F 86% 29.96 in 10.0 mi NW 5.8 mph - N/A   Clear
2:53 AM 37.9 °F 30.9 °F 34.0 °F 86% 29.96 in 10.0 mi NW 10.4 mph - N/A   Clear
3:53 AM 35.1 °F 28.6 °F 32.0 °F 89% 29.97 in 10.0 mi NNW 8.1 mph - N/A   Clear
4:53 AM 35.1 °F 26.9 °F 32.0 °F 89% 29.98 in 10.0 mi NNW 11.5 mph - N/A   Clear
5:05 AM 35.6 °F 27.5 °F 32.0 °F 87% 29.96 in 10.0 mi NNW 11.5 mph - N/A   Partly Cloudy
5:18 AM 35.6 °F 29.2 °F 33.8 °F 93% 29.97 in 10.0 mi NW 8.1 mph - N/A   Mostly Cloudy
5:53 AM 36.0 °F 29.6 °F 33.1 °F 89% 30.02 in 10.0 mi NW 8.1 mph - N/A   Overcast
6:53 AM 36.0 °F 32.1 °F 32.0 °F 86% 30.05 in 10.0 mi WNW 4.6 mph - N/A   Overcast
7:53 AM 36.0 °F 30.3 °F 33.1 °F 89% 30.08 in 10.0 mi WNW 6.9 mph - N/A   Overcast
8:53 AM 37.0 °F 30.4 °F 33.1 °F 86% 30.09 in 10.0 mi NW 9.2 mph - N/A   Overcast
9:53 AM 39.0 °F 33.4 °F 33.1 °F 79% 30.10 in 10.0 mi NNW 8.1 mph - N/A   Overcast
10:53 AM 41.0 °F 35.8 °F 34.0 °F 76% 30.11 in 10.0 mi NNW 8.1 mph - N/A   Overcast
11:31 AM 42.8 °F 37.5 °F 33.8 °F 70% 30.08 in 10.0 mi North 9.2 mph - N/A   Scattered Clouds
11:53 AM 44.1 °F 40.1 °F 34.0 °F 68% 30.12 in 10.0 mi North 6.9 mph - N/A   Clear
12:53 PM 48.0 °F - 34.0 °F 58% 30.09 in 10.0 mi NNE 9.2 mph - N/A   Clear
1:53 PM 53.1 °F - 35.1 °F 50% 30.06 in 10.0 mi NE 8.1 mph - N/A   Clear
2:53 PM 55.9 °F - 34.0 °F 44% 30.03 in 10.0 mi NNE 10.4 mph - N/A   Clear
3:53 PM 55.9 °F - 33.1 °F 42% 30.02 in 10.0 mi Variable 4.6 mph - N/A   Clear
4:53 PM 55.9 °F - 34.0 °F 44% 30.01 in 10.0 mi East 11.5 mph - N/A   Clear
5:53 PM 54.0 °F - 33.1 °F 45% 30.00 in 10.0 mi East 11.5 mph - N/A   Clear
6:53 PM 50.0 °F - 33.1 °F 52% 30.01 in 10.0 mi East 11.5 mph - N/A   Clear
7:53 PM 48.0 °F - 33.1 °F 56% 30.01 in 10.0 mi East 9.2 mph - N/A   Clear
8:53 PM 45.0 °F 40.6 °F 33.1 °F 63% 30.02 in 10.0 mi East 8.1 mph - N/A   Clear
9:53 PM 43.0 °F 37.7 °F 33.1 °F 68% 30.01 in 10.0 mi East 9.2 mph 16.1 mph N/A   Clear
10:53 PM 43.0 °F 36.4 °F 34.0 °F 71% 29.99 in 10.0 mi East 12.7 mph 20.7 mph N/A   Clear
11:53 PM 43.0 °F 36.4 °F 33.1 °F 68% 29.98 in 10.0 mi East 12.7 mph - N/A   Clear